Location: Ellerstadt
(49.4644°N, 8.2615°E)
Time: 00:40:25
(UTC+00:00)

ISS - Pass Details

Date: 19 May 2021
Orbit: 417 x 422 km, 51.6° (Epoch: 15 June)

Event Time Altitude Azimuth Distance (km) Brightness Sun altitude
Rises 23:18:20 0° 288° (WNW) 2,371 0.3 -20.5°
Reaches altitude 10° 23:20:26 10° 288° (WNW) 1,506 -0.7 -20.6°
Enters shadow 23:23:05 52° 283° (WNW) 532 -3.3 -20.6°
